Location: Recife
(8.0585°S, 34.8848°W)
Time: 12:10:47
(UTC-03:00)

Tiros 1 - All Passes

Search period start: 14 April 2026 00:00
Search period end: 24 April 2026 00:00
Orbit: 618 x 649 km, 48.4° (Epoch: 14 April)

Date Brightness Start Highest point End Pass type
(mag) Time Alt. Az. Time Alt. Az. Time Alt. Az.
14 Apr - 06:47:48 10° SSW 06:52:17 55° SE 06:56:43 10° NE daylight
14 Apr - 08:32:50 10° WNW 08:33:54 11° NW 08:34:58 10° NW daylight
14 Apr - 19:02:37 10° N 19:06:32 26° NE 19:10:27 10° ESE visible
14 Apr - 20:44:21 10° WNW 20:48:15 25° SW 20:52:11 10° S night (unlit)
15 Apr - 05:29:28 10° SSE 05:31:53 14° SE 05:34:17 10° ESE daylight
15 Apr - 07:09:23 10° SW 07:13:44 46° NW 07:18:04 10° NNE daylight
15 Apr - 19:23:15 10° NW 19:27:57 78° NE 19:32:41 10° SE visible
16 Apr - 05:49:15 10° SSW 05:53:31 39° SE 05:57:45 10° ENE daylight
16 Apr - 07:32:29 10° W 07:35:09 15° NW 07:37:49 10° NNW daylight
16 Apr - 18:04:28 10° N 18:07:46 19° NE 18:11:04 10° E visible
16 Apr - 19:45:09 10° WNW 19:49:28 35° SW 19:53:46 10° SSE visible
17 Apr - 04:32:40 10° SE 04:33:02 10° SE 04:33:24 10° SE visible
17 Apr - 06:10:28 10° SW 06:14:59 66° NW 06:19:29 10° NNE daylight
17 Apr - 18:24:35 10° NNW 18:29:11 55° NE 18:33:49 10° SE visible
17 Apr - 20:08:56 10° WSW 20:11:07 13° SW 20:13:17 10° SSW visible
18 Apr - 04:50:47 10° S 04:54:44 28° SE 04:58:38 10° ENE visible
18 Apr - 06:32:56 10° WSW 06:36:24 21° NW 06:39:52 10° N daylight
18 Apr - 17:06:42 10° NNE 17:08:59 13° NE 17:11:18 10° E daylight
18 Apr - 18:46:06 10° NW 18:50:39 48° SW 18:55:14 10° SSE visible
19 Apr - 05:11:39 10° SW 05:16:15 86° SE 05:20:46 10° NE daylight
19 Apr - 17:26:03 10° NNW 17:30:25 39° NE 17:34:50 10° ESE visible
19 Apr - 19:09:05 10° W 19:12:14 18° SW 19:15:26 10° S visible
20 Apr - 03:52:28 10° S 03:55:56 21° SE 03:59:21 10° E visible
20 Apr - 05:33:41 10° WSW 05:37:40 30° NW 05:41:37 10° N daylight
20 Apr - 17:47:10 10° NW 17:51:52 69° SW 17:56:35 10° SSE visible
21 Apr - 04:12:57 10° SSW 04:17:29 60° SE 04:21:57 10° NE visible
21 Apr - 16:27:38 10° N 16:31:39 28° NE 16:35:41 10° ESE daylight
21 Apr - 18:09:37 10° WNW 18:13:24 24° SW 18:17:13 10° S visible
22 Apr - 02:54:22 10° S 02:57:06 15° SE 02:59:47 10° E visible
22 Apr - 04:34:35 10° WSW 04:38:55 42° NW 04:43:12 10° NNE visible
22 Apr - 16:48:22 10° NW 16:53:05 85° NE 16:57:49 10° SE daylight
23 Apr - 03:14:20 10° SSW 03:18:42 42° SE 03:23:01 10° ENE visible
23 Apr - 04:57:55 10° W 05:00:20 14° NW 05:02:44 10° NNW visible
23 Apr - 15:29:26 10° N 15:32:53 20° NE 15:36:21 10° E daylight
23 Apr - 17:10:22 10° WNW 17:14:35 32° SW 17:18:50 10° SSE daylight
